Weather History for Glasgow, United Kingdom

Change the Weather History Date:

Saturday, September 21, 2013

  Actual Average Record
Temperature  
Mean Temperature 54 °F -  
Max Temperature 60 °F 55 °F 75 °F (1998)
Min Temperature 48 °F 43 °F 37 °F (2012)
Degree Days  
Heating Degree Days 11    
Growing Degree Days 4 (Base 50)    
Moisture  
Dew Point 54 °F    
Average Humidity 89    
Maximum Humidity 100    
Minimum Humidity 77    
Precipitation  
Precipitation 0.00 in - - ()
Sea Level Pressure  
Sea Level Pressure 30.06 in    
Wind  
Wind Speed 9 mph ()    
Max Wind Speed 15 mph    
Max Gust Speed -    
Visibility 6.1 miles    
Events      
Averages and records for this station are not official NWS values.
T = Trace of Precipitation, MM = Missing Value Source: Averaged Metar Reports

Daily Weather History Graph

Daily Weather History Graph

Search for Another Location

Airport:

Trip Planner

Search our weather history database for the weather conditions in past years. The results will help you decide how hot, cold, wet, or windy it might be!

Date:

Astronomy

Sep. 21, 2013 Rise Set
Actual Time 7:01 AM BST 7:19 PM BST
Civil Twilight 6:24 AM BST 7:56 PM BST
Nautical Twilight 5:39 AM BST 8:40 PM BST
Astronomical Twilight 4:52 AM BST 9:27 PM BST
Moon 7:47 PM BST (9/21) 9:34 AM BST (9/21)
Length of Visible Light 13h 32m
Length of Day
12h 17m
Waning Gibbous, 95% of the Moon is Illuminated
Sep 21
Waning Gibbous
Sep 27
Last Quarter
Oct 5
New
Oct 12
First Quarter
Oct 19
Full

Hourly Weather History & Observations

Time (BST) Temp. Dew Point Humidity Pressure Visibility Wind Dir Wind Speed Gust Speed Precip Events Conditions
12:20 AM 55.4 °F 50.0 °F 82% 30.01 in 6.2 mi SSW 13.8 mph - N/A   Mostly Cloudy
12:50 AM 55.4 °F 50.0 °F 82% 30.01 in 6.2 mi SSW 15.0 mph - N/A   Overcast
1:20 AM 55.4 °F 50.0 °F 82% 30.01 in 6.2 mi SSW 12.7 mph - N/A   Overcast
1:50 AM 55.4 °F 50.0 °F 82% 30.04 in 6.2 mi SW 15.0 mph - N/A   Scattered Clouds
2:20 AM 55.4 °F 50.0 °F 82% 30.04 in 6.2 mi SSW 15.0 mph - N/A   Partly Cloudy
2:50 AM 55.4 °F 50.0 °F 82% 30.04 in 6.2 mi SSW 12.7 mph - N/A   Mostly Cloudy
3:20 AM 55.4 °F 50.0 °F 82% 30.04 in 6.2 mi SSW 12.7 mph - N/A   Overcast
3:50 AM 55.4 °F 48.2 °F 77% 30.04 in 6.2 mi SSW 13.8 mph - N/A   Overcast
4:20 AM 55.4 °F 48.2 °F 77% 30.04 in 6.2 mi SSW 11.5 mph - N/A   Overcast
4:50 AM 55.4 °F 48.2 °F 77% 30.04 in 6.2 mi SSW 12.7 mph - N/A   Mostly Cloudy
5:20 AM 53.6 °F 48.2 °F 82% 30.01 in 6.2 mi SSW 10.4 mph - N/A   Mostly Cloudy
5:50 AM 53.6 °F 48.2 °F 82% 30.04 in - SSW 12.7 mph - N/A   Clear
6:20 AM 51.8 °F 48.2 °F 88% 30.04 in 6.2 mi WSW 3.5 mph - N/A   Mostly Cloudy
6:50 AM 48.2 °F 46.4 °F 93% 30.04 in 6.2 mi NNE 4.6 mph - N/A   Partly Cloudy
7:20 AM 48.2 °F 46.4 °F 93% 30.04 in 6.2 mi NE 3.5 mph - N/A   Partly Cloudy
7:50 AM 50.0 °F 48.2 °F 94% 30.04 in 6.2 mi Variable 2.3 mph - N/A   Partly Cloudy
8:20 AM 50.0 °F 46.4 °F 87% 30.04 in 6.2 mi Variable 2.3 mph - N/A   Scattered Clouds
8:50 AM 50.0 °F 50.0 °F 100% 30.04 in 6.2 mi NE 4.6 mph - N/A   Scattered Clouds
9:20 AM 53.6 °F 51.8 °F 94% 30.06 in 6.2 mi NE 2.3 mph - N/A   Mostly Cloudy
9:50 AM 55.4 °F 51.8 °F 88% 30.06 in 6.2 mi Variable 3.5 mph - N/A   Mostly Cloudy
10:20 AM 55.4 °F 53.6 °F 94% 30.06 in 6.2 mi SW 8.1 mph - N/A   Mostly Cloudy
10:50 AM 57.2 °F 53.6 °F 88% 30.06 in 6.2 mi SW 9.2 mph - N/A   Mostly Cloudy
11:20 AM 57.2 °F 53.6 °F 88% 30.06 in 6.2 mi SSW 10.4 mph - N/A   Mostly Cloudy
11:50 AM 57.2 °F 53.6 °F 88% 30.06 in 6.2 mi SW 10.4 mph - N/A   Mostly Cloudy
12:20 PM 57.2 °F 53.6 °F 88% 30.06 in 6.2 mi SW 11.5 mph - N/A   Mostly Cloudy
12:50 PM 59.0 °F 55.4 °F 88% 30.06 in 6.2 mi SW 12.7 mph - N/A   Mostly Cloudy
1:20 PM 59.0 °F 55.4 °F 88% 30.06 in 5.0 mi SW 12.7 mph - N/A   Mostly Cloudy
1:50 PM 59.0 °F 55.4 °F 88% 30.06 in 5.0 mi SSW 9.2 mph - N/A   Mostly Cloudy
2:20 PM 59.0 °F 57.2 °F 94% 30.09 in - SW 9.2 mph - N/A   Drizzle
2:50 PM 59.0 °F 57.2 °F 94% 30.06 in - SW 8.1 mph - N/A   Mostly Cloudy
3:20 PM 59.0 °F 57.2 °F 94% 30.06 in 5.6 mi SW 8.1 mph - N/A   Mostly Cloudy
3:50 PM 59.0 °F 57.2 °F 94% 30.06 in 6.2 mi SSW 9.2 mph - N/A   Mostly Cloudy
4:20 PM 60.8 °F 57.2 °F 88% 30.06 in 6.2 mi SSW 8.1 mph - N/A   Mostly Cloudy
4:50 PM 60.8 °F 57.2 °F 88% 30.06 in 6.2 mi SW 10.4 mph - N/A   Mostly Cloudy
5:20 PM 60.8 °F 57.2 °F 88% 30.06 in 6.2 mi SW 9.2 mph - N/A   Mostly Cloudy
5:50 PM 60.8 °F 59.0 °F 94% 30.06 in 5.6 mi SW 8.1 mph - N/A   Mostly Cloudy
6:20 PM 60.8 °F 59.0 °F 94% 30.06 in 5.0 mi SSW 9.2 mph - N/A   Overcast
6:50 PM 60.8 °F 59.0 °F 94% 30.06 in 5.0 mi SW 8.1 mph - N/A   Mostly Cloudy
7:20 PM 60.8 °F 59.0 °F 94% 30.06 in 6.2 mi SW 8.1 mph - N/A   Mostly Cloudy
7:50 PM 59.0 °F 59.0 °F 100% 30.09 in 6.2 mi SW 6.9 mph - N/A   Mostly Cloudy
8:20 PM 59.0 °F 57.2 °F 94% 30.09 in 6.2 mi SW 5.8 mph - N/A   Mostly Cloudy
8:50 PM 59.0 °F 59.0 °F 100% 30.09 in 6.2 mi SSW 4.6 mph - N/A   Mostly Cloudy
9:20 PM 60.8 °F 59.0 °F 94% 30.09 in 6.2 mi SSW 5.8 mph - N/A   Mostly Cloudy
9:50 PM 60.8 °F 59.0 °F 94% 30.09 in 6.2 mi SSW 5.8 mph - N/A   Mostly Cloudy
10:20 PM 60.8 °F 59.0 °F 94% 30.09 in 6.2 mi SSW 9.2 mph - N/A   Mostly Cloudy
10:50 PM 60.8 °F 59.0 °F 94% 30.09 in 6.2 mi SSW 8.1 mph - N/A   Scattered Clouds
11:20 PM 60.8 °F 59.0 °F 94% 30.09 in 6.2 mi SSW 9.2 mph - N/A   Mostly Cloudy
11:50 PM 60.8 °F 59.0 °F 94% 30.12 in 6.2 mi SSW 10.4 mph - N/A   Mostly Cloudy